C/2015 X7 ( ATLAS )

Japanese version
Home page
Updated on March 25, 2017

---------------------------------------------------------------------

* Profile

Discovery Date December 12, 2015
Magnitude 17.6 mag
Discoverer Asteroid Terrestrial-impact Last Alert System (ATLAS) Team

* Pictures

* Orbital Elements

Epoch 2016 July 31.0 TT = JDT 2457600.5
T 2016 July 30.23595 TT                                 MPCW
q   3.6845448            (2000.0)            P               Q
z  -0.0004857      Peri.  348.48602     -0.68039895     -0.49113082
 +/-0.0000017      Node   139.88385     +0.72138028     -0.57960654
e   1.0017895      Incl.   57.58097     +0.12910370     +0.65026670
From 441 observations 2015 Dec. 12-2017 Mar. 6, mean residual 0".6.

* Magnitudes Graph

        m1 = 8.5 + 5 log d + 10.0 log r

---------------------------------------------------------------------

The orbital elements are published on M.P.E.C. 2017-E59.
The magnitudes graphs are made with Comet for Windows.

---------------------------------------------------------------------

Copyright(C) Seiichi Yoshida (comet@aerith.net). All rights reserved.